Lapse_Rate
9.3 9.4 9.4 9.4 9.4 9.4 9.4 9.3 9.6 9.2 9.2 9.2 9.5 9.6 9.4 9.5 9.4 9.4 8.4 9.0 9.4 8.7 9.2 8.9 9.1 9.1 8.5 7.7 7.6 7.9 6.5 6.5 6.5 6.5 6.5 6.8 6.5 7.5 7.9 7.2 7.2 6.5 7.3 3.7 6.2
9.3 9.4 9.3 9.3 9.3 9.3 9.3 9.3 9.3 9.5 9.5 9.4 9.3 9.4 9.5 9.4 9.3 8.8 9.7 9.6 9.7 9.4 9.2 8.7 8.3 8.6 7.4 7.6 7.3 6.5 6.5 6.5 6.5 6.5 6.5 6.6 6.6 6.9 6.8 6.8 6.9 6.8 6.3 4.8 6.5
9.3 9.3 9.3 9.3 9.3 9.3 9.3 9.3 9.3 9.4 9.4 9.4 9.5 9.5 9.4 9.4 8.3 8.4 9.6 8.2 6.6 9.1 9.4 9.2 8.8 8.3 7.2 7.5 7.2 6.6 6.5 6.5 6.5 7.0 7.1 6.5 6.6 7.3 6.6 6.5 7.0 6.9 7.0 4.8 5.5
9.2 9.2 9.3 9.3 9.3 8.7 8.0 6.5 6.7 8.6 9.3 9.4 9.4 9.4 9.4 9.3 6.5 8.8 9.5 9.6 9.7 9.8 9.1 8.6 8.4 7.3 6.5 6.5 7.2 6.5 6.5 6.7 6.9 7.3 6.9 6.5 7.1 6.5 6.9 6.8 7.7 7.7 6.2 5.8 5.8
9.0 9.2 9.2 9.2 9.2 8.1 7.1 6.4 6.3 7.0 8.4 8.4 9.2 9.3 9.4 8.0 7.9 9.5 8.9 9.6 9.8 9.2 8.6 8.2 7.7 7.3 6.5 6.5 6.6 6.5 6.5 7.0 7.4 7.2 7.1 7.2 6.5 6.7 6.7 7.6 7.9 7.9 4.6 5.2 5.4
9.3 9.1 9.2 9.1 9.1 8.5 7.8 6.9 7.0 7.4 8.8 8.8 9.3 9.5 8.8 6.6 9.8 10.0 9.8 9.7 9.4 8.7 8.1 7.8 7.9 8.1 6.9 6.5 6.5 6.7 6.5 6.6 7.2 7.0 7.1 6.5 6.5 6.8 7.1 7.7 7.4 6.8 5.8 6.0 6.1
9.0 9.2 9.1 8.9 7.4 7.4 7.3 7.0 7.2 7.6 7.6 7.8 9.6 9.8 8.4 8.0 10.0 9.6 8.9 9.1 9.5 8.8 8.2 8.4 7.9 7.7 7.6 6.5 7.5 6.8 6.5 6.5 6.5 6.5 6.6 7.0 6.5 6.5 7.3 7.5 7.2 7.1 7.2 7.0 7.5
9.2 9.2 8.9 7.8 7.4 7.6 7.2 7.1 6.9 7.1 6.8 8.9 9.5 9.4 7.4 9.0 8.3 7.3 7.9 9.0 9.5 9.3 8.8 9.1 8.4 7.5 7.3 7.5 6.7 6.5 6.5 6.5 6.5 6.5 6.6 6.7 6.5 6.5 7.4 7.2 6.9 6.9 7.0 6.9 6.8
9.2 8.9 7.4 6.5 6.8 7.2 7.1 7.3 6.5 7.6 8.0 8.8 9.2 8.7 7.0 8.8 8.6 9.4 8.2 7.1 8.0 8.9 9.4 9.1 8.4 7.0 7.0 6.5 6.5 6.5 6.5 6.5 6.5 6.5 6.5 6.5 6.5 6.5 7.4 7.2 6.8 7.0 7.4 6.8 6.0
9.0 7.1 6.4 5.9 6.4 6.9 6.9 7.8 9.0 9.1 9.3 9.8 9.4 7.5 8.2 7.8 8.8 9.2 9.1 8.9 8.3 8.2 7.8 7.5 7.0 6.5 6.5 6.5 6.5 6.5 6.5 6.5 6.5 6.5 6.5 6.5 6.5 6.5 6.9 6.9 6.8 7.0 7.3 7.3 7.0
8.1 7.3 6.3 6.2 6.4 7.0 9.1 9.5 8.4 7.9 8.5 7.6 7.7 7.4 8.0 8.9 9.3 8.6 8.9 8.2 8.2 7.5 6.5 6.6 6.5 6.5 6.5 6.5 6.5 6.5 6.5 6.5 6.5 6.5 6.5 6.5 6.5 6.5 6.5 6.7 6.6 6.7 7.0 7.1 7.4
7.1 6.7 6.3 6.1 6.3 7.7 9.6 8.5 8.2 8.0 6.7 8.2 8.1 8.1 8.7 8.9 7.4 8.0 9.1 7.1 6.7 6.5 6.5 6.5 6.5 6.5 6.5 6.5 6.5 6.5 6.5 6.5 6.5 6.5 6.5 6.5 6.5 6.5 6.5 6.5 6.7 6.6 7.0 7.2 7.3
7.0 6.5 6.4 6.3 6.7 9.1 9.1 8.8 9.9 9.3 6.7 7.2 8.0 7.7 8.1 8.4 7.1 7.3 8.2 7.5 6.5 6.5 6.5 6.5 6.5 6.5 6.5 6.5 6.5 6.5 6.5 6.5 6.5 6.5 6.5 6.5 6.5 6.5 6.5 6.5 6.8 6.9 7.3 7.5 7.2
6.8 6.4 6.1 6.1 8.1 9.3 8.7 9.6 9.7 8.9 6.5 6.5 6.7 7.4 8.1 8.1 6.6 8.5 8.4 7.5 6.6 6.5 6.5 6.5 6.5 6.5 6.5 6.5 6.5 6.5 6.5 6.5 6.5 6.5 6.5 6.5 6.5 6.5 6.5 6.5 6.5 6.6 7.1 7.3 7.4
6.7 6.4 6.1 7.0 8.9 8.7 9.1 8.8 8.2 7.5 6.5 6.5 6.7 8.9 8.2 7.0 7.1 7.3 8.5 7.5 6.5 6.5 6.5 6.5 6.5 6.5 6.5 6.5 6.5 6.5 6.5 6.5 6.5 6.5 6.5 6.5 6.5 6.5 6.5 6.5 6.5 6.5 6.8 7.2 7.5
6.4 5.9 6.1 8.7 9.5 8.7 7.5 6.7 8.6 6.5 6.5 6.5 6.8 6.5 6.5 6.7 6.7 7.4 7.2 7.8 7.4 6.5 6.5 6.5 6.6 6.5 6.5 6.5 6.5 6.5 6.5 6.5 6.5 6.5 6.5 6.5 6.5 6.5 6.5 6.5 6.5 6.5 6.9 7.2 7.3
5.9 5.5 6.9 9.7 8.5 7.6 7.1 8.4 6.5 6.5 6.5 6.5 6.5 6.5 6.5 6.5 6.5 6.5 6.5 6.5 6.5 6.5 6.5 6.5 6.5 6.5 6.5 6.5 6.5 6.5 6.5 6.5 6.5 6.5 6.5 6.5 6.5 6.5 6.5 6.5 6.5 6.5 6.7 7.3 7.4
5.5 6.6 9.4 9.8 7.9 7.3 7.7 6.6 6.5 6.5 6.5 6.5 6.5 6.5 6.5 6.5 6.5 6.5 6.5 6.5 6.5 6.5 6.5 6.5 6.5 6.5 6.5 6.5 6.5 6.5 6.5 6.5 6.5 6.5 6.5 6.5 6.5 6.5 6.5 6.5 6.7 6.8 6.9 7.0 7.0
6.0 8.0 9.4 9.2 8.3 8.6 7.6 6.5 6.5 6.5 6.5 6.5 6.5 6.5 6.5 6.5 6.5 6.5 6.5 6.5 6.5 6.5 6.5 6.5 6.5 6.5 6.5 6.5 6.5 6.5 6.5 6.5 6.5 6.5 6.5 6.5 6.5 6.5 6.5 6.5 6.5 6.5 6.7 6.8 6.7
8.1 8.7 8.8 8.6 8.4 8.8 6.6 6.5 6.5 6.6 6.5 6.5 6.5 6.5 6.5 6.5 6.5 6.5 6.5 6.5 6.5 6.5 6.5 6.5 6.5 6.5 6.5 6.5 6.5 6.5 6.5 6.5 6.5 6.5 6.5 6.5 6.5 6.5 6.5 6.5 6.5 6.5 6.5 6.7 6.3
8.5 7.8 8.0 8.2 8.8 7.8 6.5 6.5 6.5 7.1 7.0 6.5 6.5 6.5 6.5 6.5 6.5 6.5 6.5 6.5 6.5 6.5 6.5 6.5 6.5 6.5 6.5 6.5 6.5 6.5 6.5 6.5 6.5 6.5 6.5 6.5 6.5 6.5 6.5 6.5 6.5 6.5 6.8 7.1 7.3
8.6 6.5 8.6 8.4 6.8 6.8 6.5 6.5 6.9 6.6 7.3 6.5 6.5 6.5 6.5 6.5 6.5 6.5 6.5 6.5 6.8 6.5 6.5 6.5 6.5 6.5 6.5 6.5 6.5 6.5 6.5 6.5 6.5 6.5 6.5 6.5 6.5 6.5 6.5 6.5 6.5 6.5 7.0 7.3 7.5
7.2 7.8 9.2 8.9 6.5 6.5 6.5 6.5 6.6 6.5 6.5 6.5 6.5 6.5 6.5 6.5 6.5 6.5 6.5 6.6 6.9 6.5 6.5 6.5 6.5 6.5 6.5 6.5 6.5 6.5 6.5 6.5 6.5 6.5 6.5 6.5 6.5 6.5 6.5 6.5 6.7 6.6 7.2 7.4 7.5
7.5 6.5 7.6 8.1 7.7 6.6 6.5 6.5 6.5 7.1 6.5 6.7 6.5 6.5 6.5 6.5 6.5 6.5 6.5 6.5 6.7 6.5 6.8 6.6 6.5 6.5 6.5 6.5 6.5 6.5 6.5 6.5 6.5 6.5 6.5 6.5 6.5 6.5 6.5 6.5 6.5 6.9 7.3 7.5 7.6
7.4 6.8 7.4 6.5 6.6 6.5 6.5 6.5 6.5 6.5 6.7 6.9 6.5 6.5 6.5 6.5 6.5 6.5 6.5 6.5 6.5 6.7 6.5 6.5 6.5 6.5 6.5 6.5 6.5 6.5 6.5 6.5 6.5 6.5 6.5 6.5 6.5 6.5 6.5 6.5 6.5 7.2 7.3 7.4 7.5
7.3 7.0 7.5 7.1 7.1 6.5 6.5 6.5 6.5 6.5 6.5 6.5 6.5 6.5 6.5 6.5 6.5 6.5 6.5 6.5 6.5 6.5 6.5 6.5 6.5 6.5 6.5 6.5 6.5 6.5 6.5 6.5 6.5 6.5 6.5 6.5 6.5 6.5 6.7 7.1 6.9 7.1 7.3 7.2 7.4
8.4 7.7 7.0 6.9 6.5 6.5 6.5 6.5 6.5 6.5 6.7 6.9 6.6 6.5 6.5 6.5 7.0 7.1 7.2 6.8 6.6 6.5 6.5 6.5 6.5 6.5 6.5 6.5 6.5 6.5 6.5 6.5 6.5 6.5 6.5 6.5 6.5 6.5 6.5 6.5 6.7 7.1 7.3 7.4 7.6
Wind_Speed
27 27 28 28 29 29 28 28 27 26 27 27 28 28 28 27 28 24 28 21 25 36 16 18 26 24 21 19 16 20 14 17 31 28 22 13 15 18 13 13 7 11 7 8 6
27 28 29 29 30 29 28 28 27 27 28 27 29 28 27 28 25 33 30 34 32 29 28 21 24 29 22 26 14 17 19 31 27 26 22 21 14 13 10 12 9 6 7 9 7
26 26 27 29 30 31 31 30 28 28 27 30 30 29 28 24 25 23 14 29 35 32 27 29 24 31 32 26 28 19 25 24 29 28 22 22 18 14 17 18 13 14 11 12 10
29 30 32 33 34 34 33 34 32 31 30 30 31 32 27 18 12 10 20 26 22 19 27 30 31 33 34 37 26 26 34 29 29 28 23 22 16 20 21 12 15 16 10 5 8
32 33 34 36 37 36 34 35 34 32 32 33 31 29 20 18 26 35 41 35 22 18 28 34 36 33 37 31 29 35 29 34 30 26 26 20 23 21 20 18 16 15 11 10 11
34 35 36 37 36 34 33 33 33 30 31 31 28 23 20 29 17 19 23 24 19 10 13 27 30 35 33 34 34 27 29 28 31 32 27 24 25 20 22 16 18 23 20 14 19
35 37 38 38 36 35 33 33 31 31 31 28 25 14 20 28 19 20 19 28 19 16 19 18 23 30 34 36 32 28 23 29 29 29 30 24 23 30 23 16 18 14 16 19 16
36 38 38 38 36 33 33 32 34 32 28 26 23 15 11 2 4 4 13 17 15 20 20 18 11 23 33 29 25 30 28 26 31 30 26 23 33 28 23 19 20 16 13 16 19
37 39 40 39 35 33 31 28 33 26 26 26 7 16 9 4 16 25 5 7 15 21 15 14 19 16 29 26 25 23 30 39 28 29 28 29 26 22 25 23 18 18 18 17 16
37 38 39 38 34 32 25 28 22 24 16 7 4 11 6 22 22 17 6 12 10 12 14 17 9 13 16 23 25 33 36 34 33 29 26 30 28 20 18 26 25 21 20 19 19
40 40 41 38 35 28 17 13 15 6 14 9 17 11 17 21 20 11 8 13 15 13 16 20 12 20 22 30 31 31 31 33 29 26 29 27 29 26 22 19 23 17 14 16 20
39 39 39 37 34 20 12 10 11 6 13 13 12 13 18 22 22 17 21 9 7 13 16 17 22 25 25 20 27 33 33 34 25 24 25 26 29 25 20 21 18 18 22 24 22
39 41 39 36 29 12 12 12 12 4 5 7 12 11 22 22 12 18 17 15 16 18 16 20 23 25 28 23 27 33 33 26 29 23 21 19 25 23 26 22 20 16 19 21 21
39 41 38 31 11 13 13 18 12 4 4 14 17 9 24 22 11 18 13 11 7 8 14 15 25 23 24 28 27 27 30 25 20 17 19 18 13 23 24 22 21 21 21 20 20
39 39 35 21 11 14 19 17 2 4 5 15 14 12 21 19 17 22 9 14 8 17 6 8 20 29 24 23 23 19 19 23 24 20 14 19 12 20 22 24 24 25 26 23 21
42 39 28 9 11 19 21 7 3 3 6 12 19 23 22 18 21 21 13 13 3 14 10 16 14 19 30 20 24 9 22 19 17 15 14 23 19 15 19 27 23 20 21 22 20
43 35 13 12 13 24 13 4 3 10 17 15 25 24 21 22 24 24 18 18 15 12 17 17 17 7 6 28 21 17 18 8 9 7 10 24 17 18 18 22 20 18 19 19 19
42 25 12 12 22 18 9 2 8 15 17 23 19 24 15 22 22 23 17 13 15 17 13 8 5 11 5 11 23 25 11 6 8 9 18 17 15 18 22 20 13 11 7 9 12
33 6 11 13 21 10 7 8 6 12 13 14 22 18 19 24 19 22 16 11 10 12 11 6 5 14 8 4 7 26 18 16 15 20 8 14 22 6 7 6 4 12 17 14 9
10 6 10 21 20 7 6 7 8 14 17 16 18 12 23 22 22 20 13 7 9 14 11 4 10 6 5 1 9 8 28 23 17 15 15 15 15 8 15 15 10 9 9 6 6
6 5 9 25 8 6 6 7 9 16 17 11 17 18 17 24 24 18 15 11 19 17 15 10 5 8 7 8 5 7 15 20 20 14 16 18 14 12 16 14 13 14 15 14 12
6 5 8 11 8 8 8 10 14 13 18 10 11 15 17 25 12 11 16 11 18 17 10 5 5 8 8 11 9 4 8 25 12 22 15 13 5 10 14 16 14 14 15 15 15
7 4 2 8 8 12 12 6 13 18 16 9 9 13 14 14 7 12 15 16 17 14 7 7 5 7 3 7 10 8 10 8 19 15 18 10 6 10 14 14 15 15 15 15 14
5 5 4 4 5 13 13 9 16 13 10 15 12 13 21 16 16 7 18 9 10 11 14 7 3 4 5 5 5 6 15 11 4 8 13 12 10 14 18 18 18 17 17 16 15
4 4 3 8 10 11 11 9 17 16 8 13 6 20 19 8 13 13 19 15 10 12 6 7 4 10 9 12 19 19 14 16 11 10 1 2 5 14 18 19 18 16 19 18 19
6 4 4 11 12 12 10 10 15 20 14 11 13 24 17 10 14 19 20 12 8 12 8 6 5 9 14 18 21 17 22 11 15 14 8 13 7 20 18 16 17 18 19 19 19
3 3 3 9 11 10 10 15 17 17 9 10 19 18 20 17 23 19 15 11 10 12 16 10 7 4 5 9 8 9 18 12 11 16 11 8 12 21 20 19 18 16 16 20 21
Wind_Direction
353 350 346 342 338 333 329 325 323 318 312 310 311 307 305 301 296 278 261 249 245 246 258 236 218 220 207 205 202 207 231 230 230 230 241 247 210 219 221 161 174 168 215 129 142
352 349 345 341 336 332 330 326 322 317 313 310 307 305 306 308 297 280 277 260 249 245 228 227 209 212 207 204 202 204 218 222 229 238 239 238 233 217 179 201 199 157 129 131 161
348 345 342 338 336 333 330 326 322 318 314 312 309 308 308 309 298 284 358 231 229 230 237 227 235 211 212 209 200 211 224 216 232 240 244 246 229 228 191 202 195 185 215 148 165
347 347 345 342 339 334 329 325 320 317 315 311 306 303 304 294 269 2 322 326 332 238 235 227 223 221 217 212 205 216 217 224 226 234 240 239 247 225 206 199 193 180 123 103 181
349 347 346 341 338 332 328 322 317 315 312 309 306 305 304 274 262 274 288 293 292 278 233 222 217 218 219 220 213 218 218 221 234 234 234 240 236 238 232 219 183 171 141 173 218
347 346 345 340 335 331 325 319 315 313 309 304 304 306 288 277 287 302 296 288 276 279 290 230 222 222 225 222 220 216 224 235 221 234 238 234 236 230 228 219 176 164 170 198 211
346 345 342 339 335 331 326 320 315 312 309 308 306 308 293 278 309 329 305 285 267 288 285 271 248 229 224 222 222 225 226 220 240 226 231 235 240 229 230 218 218 204 191 181 207
347 344 340 339 335 331 328 320 315 315 308 310 305 284 273 309 311 326 315 312 291 268 246 253 262 251 231 232 229 231 228 236 214 230 231 213 237 229 225 222 217 188 202 190 188
346 342 340 337 335 333 330 323 316 313 305 311 292 314 296 163 315 329 226 265 284 288 272 254 242 238 228 220 222 217 225 227 223 211 221 219 236 241 214 203 206 197 190 198 194
344 339 337 334 335 336 336 323 325 302 347 299 15 333 342 329 330 325 320 289 275 281 267 216 220 234 206 201 207 212 220 225 220 215 214 225 229 239 222 200 210 212 198 199 200
344 341 339 335 332 338 334 343 3 344 355 315 308 313 324 330 327 349 296 318 271 244 245 222 218 231 221 210 207 214 227 223 226 211 224 221 231 225 236 237 206 210 212 214 212
342 339 337 335 329 334 339 20 19 272 307 314 295 338 344 333 328 349 354 332 333 269 219 227 215 222 226 214 220 224 221 232 224 224 215 225 229 232 222 234 212 197 204 218 221
343 340 339 336 319 337 330 2 341 303 261 294 0 347 340 338 8 355 354 328 290 275 259 225 224 220 228 213 209 224 225 228 228 210 223 232 234 221 228 222 219 220 215 222 218
342 341 338 336 309 339 346 342 334 180 265 11 357 357 340 353 6 353 4 323 308 291 244 225 236 219 215 232 213 212 223 233 246 194 212 193 230 220 229 221 220 215 222 218 212
341 340 336 333 316 336 337 333 17 178 1 349 338 333 331 4 340 1 29 332 307 304 269 231 201 222 227 218 225 218 221 211 242 240 207 220 223 231 210 218 220 216 215 217 219
340 338 335 341 327 342 332 343 195 283 356 320 344 339 336 356 353 351 8 12 317 317 325 262 274 219 224 226 204 233 218 194 223 239 225 219 212 229 221 213 217 223 216 223 209
339 337 343 335 337 330 325 250 324 18 344 344 331 327 324 355 352 351 355 37 27 347 347 315 257 288 240 214 203 200 197 164 189 213 224 214 229 219 216 227 218 209 215 211 208
338 329 347 2 341 335 315 32 36 352 349 325 330 317 346 351 349 346 359 16 36 2 327 334 218 183 222 232 201 201 203 174 133 178 216 214 232 237 240 265 273 291 289 264 197
335 338 4 350 341 325 0 35 10 348 336 318 315 335 337 345 347 343 5 20 32 27 3 313 287 343 220 245 217 206 204 217 200 214 234 184 239 295 161 191 264 251 246 230 234
330 314 2 341 331 344 33 31 351 350 332 332 332 328 331 342 347 341 354 344 10 3 355 315 298 345 324 193 257 248 200 203 225 221 209 225 217 213 198 205 235 240 244 359 1
341 322 2 334 291 20 24 352 331 332 347 324 318 323 338 340 335 339 350 338 2 335 328 303 254 308 300 201 242 181 202 213 222 225 223 229 210 4 77 59 59 32 23 18 10
337 334 0 325 20 22 11 334 324 333 340 332 311 333 339 329 322 347 350 350 344 326 325 338 300 297 301 311 327 285 209 210 208 203 228 219 180 45 54 54 41 33 20 12 12
339 287 328 335 16 358 359 349 343 336 341 335 317 340 335 333 331 340 341 335 341 5 349 347 354 321 13 130 25 23 357 320 227 222 212 198 132 59 32 34 27 23 16 13 16
335 336 358 322 359 2 335 343 345 1 338 339 311 329 342 336 342 306 342 344 341 352 351 334 303 316 330 350 10 1 13 0 297 233 229 230 141 13 5 4 3 8 7 6 15
354 2 22 320 341 342 330 321 340 352 348 334 315 337 341 314 330 343 333 330 344 4 22 3 297 343 292 104 66 45 34 25 45 13 328 327 91 24 356 346 344 351 355 2 4
346 337 322 300 315 325 329 343 331 335 329 321 324 331 329 320 343 318 319 329 360 330 21 356 326 336 89 107 93 61 28 31 33 9 11 347 94 7 342 342 341 344 349 354 356
338 259 283 301 318 320 345 336 322 325 318 321 328 325 321 338 321 304 288 285 278 308 345 348 335 331 152 188 290 16 4 62 70 35 353 20 333 335 341 337 329 327 353 349 344